Wind_Speed
4 4 3 5 4 2 5 5 4 2 3 3 3 5 11 11 8 8 9 9 10 12 20 23 26 27 29 31 30 29 28 25 23 20 17 13 11 11 9 9 11 14 12 8
4 5 11 8 7 3 5 2 4 2 3 4 3 4 7 12 16 16 14 14 13 11 8 15 23 25 30 35 35 30 32 30 27 24 22 17 14 12 11 8 7 9 9 8
6 8 3 6 8 7 5 8 6 1 3 3 5 6 5 11 13 14 13 12 13 15 12 11 19 26 26 29 36 35 32 31 28 25 23 14 14 11 11 10 8 7 4 7
5 6 6 7 5 7 6 5 5 6 4 0 4 4 5 7 16 14 16 11 14 13 12 12 20 22 27 32 36 37 36 31 26 24 23 19 17 14 13 12 8 4 2 3
6 2 1 4 6 10 4 11 7 8 5 2 1 2 7 3 13 19 18 16 15 14 14 14 20 26 29 26 33 37 36 32 27 23 23 20 17 14 10 10 6 4 4 3
6 4 3 4 3 12 11 12 9 5 3 3 6 7 6 5 8 7 15 19 16 15 15 15 20 20 24 25 26 31 35 34 29 26 22 20 19 16 13 9 9 8 10 10
3 5 4 4 7 4 5 5 3 3 1 6 2 3 9 6 10 9 11 17 18 17 15 13 12 18 20 23 26 28 32 33 30 27 24 20 16 14 14 14 15 12 9 8
3 7 5 5 9 10 8 7 5 7 5 4 4 6 6 1 7 7 5 9 9 12 11 12 15 19 21 27 29 27 29 30 27 22 23 16 11 11 10 15 17 16 12 10
3 6 5 5 3 10 6 4 3 6 3 2 4 7 3 2 8 10 12 13 11 13 12 13 15 4 7 15 21 22 19 18 17 14 13 11 11 13 17 18 16 14 12 10
7 5 4 5 3 1 7 6 2 2 5 5 5 4 5 2 2 4 7 9 9 11 13 13 18 21 21 19 19 19 19 19 18 19 18 19 19 18 18 16 15 12 11 10
5 3 8 2 5 8 2 2 2 5 4 5 3 6 2 3 4 5 5 6 7 9 10 11 16 22 23 21 25 29 29 18 19 19 10 15 17 18 17 15 13 12 9 7
2 5 5 11 0 1 4 3 4 5 4 1 3 6 2 6 7 6 4 6 5 7 7 8 15 22 22 22 13 11 10 12 20 12 19 19 15 13 13 12 9 6 7 9
4 1 3 10 6 1 4 2 3 4 3 6 5 6 4 6 8 6 7 3 4 6 7 6 9 5 14 18 21 11 16 20 21 19 18 15 12 11 11 10 10 11 11 11
6 4 6 7 6 2 2 4 2 3 4 4 6 4 9 10 9 6 5 6 7 5 4 3 5 12 16 16 14 15 14 15 17 17 17 16 15 13 13 12 10 10 7 6
5 4 3 2 2 3 2 3 3 2 2 4 3 7 8 10 9 6 6 6 6 5 3 2 4 9 15 14 12 13 13 13 11 12 12 12 12 13 12 9 8 7 4 1
3 1 2 3 4 6 4 6 2 3 2 2 3 2 3 7 9 6 5 8 7 6 5 5 5 8 9 10 10 9 11 11 12 11 11 12 11 9 7 7 6 4 4 5
3 5 3 4 4 4 3 3 1 2 2 5 4 5 7 7 9 8 9 9 7 6 5 5 5 8 8 8 9 10 10 9 9 9 9 9 8 6 5 4 5 6 7 8
4 5 2 2 3 2 5 4 2 2 2 1 0 10 9 7 1 5 7 7 5 5 7 7 12 12 11 11 11 10 10 10 10 9 9 8 8 7 6 6 7 8 9 11
3 5 4 4 2 5 5 3 3 0 4 1 4 7 5 6 7 5 9 6 8 10 13 15 16 15 15 15 15 13 11 9 7 6 5 5 5 6 8 9 10 11 12 14
5 7 4 2 4 7 7 2 4 3 4 4 6 6 11 6 4 4 13 10 6 10 17 18 17 15 14 15 14 12 9 7 7 8 7 6 6 8 10 11 12 14 14 16
3 4 4 2 2 5 4 2 2 5 6 1 8 7 8 5 4 1 7 7 12 13 15 17 15 15 13 12 10 8 7 7 3 5 6 6 8 10 12 13 16 17 17 17
4 4 2 2 2 3 2 3 6 6 0 4 4 6 6 2 1 3 5 8 13 14 15 15 13 11 7 10 12 11 11 8 7 7 8 9 11 12 13 15 18 18 18 18
1 4 4 6 5 4 4 4 3 4 4 4 6 6 7 6 5 4 6 8 13 18 17 15 14 12 11 13 13 13 14 14 13 12 14 14 13 14 15 16 17 18 18 19
2 3 1 2 2 3 3 2 3 5 2 5 4 5 7 6 5 4 4 5 10 16 15 16 15 13 12 13 14 16 15 17 16 17 16 14 16 17 18 19 19 19 21 21
3 4 3 3 4 3 1 2 4 3 4 5 4 5 7 6 5 5 5 6 12 16 17 18 17 14 16 13 12 13 12 13 15 14 15 17 18 19 20 21 22 20 20 20
5 6 4 5 8 5 5 5 4 7 5 6 6 3 3 6 7 8 6 13 17 20 18 15 14 15 13 11 12 12 12 13 15 16 18 19 20 21 22 22 24 22 23 24
Wind_Direction
360 352 210 187 73 225 205 144 217 329 48 336 159 138 184 188 197 192 213 218 206 213 220 208 206 205 210 214 213 210 209 204 204 197 194 198 197 203 213 224 246 230 228 237
36 249 250 114 159 179 276 56 244 342 6 81 19 264 196 189 213 208 203 210 216 216 192 199 199 196 204 210 212 212 210 206 208 213 205 204 203 207 221 227 222 204 213 223
170 233 161 172 176 175 212 198 195 331 51 69 360 303 186 207 212 226 229 232 214 207 199 190 189 193 197 203 210 213 210 211 212 213 205 196 193 203 202 208 206 212 222 233
227 256 222 146 190 164 224 179 121 109 75 275 16 283 275 205 208 214 220 210 224 207 199 196 191 191 195 205 211 214 212 213 215 212 207 199 191 186 203 213 213 199 201 193
243 292 109 157 208 165 249 162 120 103 83 88 232 289 272 108 233 222 217 217 207 206 191 190 193 198 202 200 206 213 215 215 217 213 215 216 208 211 210 202 180 155 158 138
248 308 287 228 77 160 121 76 57 61 58 307 211 174 270 197 252 263 212 220 212 201 199 196 194 194 199 200 204 213 215 217 219 218 216 220 219 208 185 179 153 153 140 120
330 234 237 175 84 30 81 86 37 17 65 233 252 174 250 310 307 280 233 215 211 197 192 188 179 180 190 193 204 211 214 216 219 222 223 225 222 203 170 159 154 149 139 123
192 318 194 196 168 175 178 161 158 194 197 240 86 235 250 341 343 350 315 203 196 190 194 193 186 182 185 194 199 206 210 214 214 218 217 215 194 177 154 145 147 142 125 109
165 270 295 225 136 142 215 225 187 100 28 98 213 280 242 32 31 32 40 59 61 68 63 55 47 47 183 176 179 191 188 176 165 157 159 139 134 127 121 126 126 117 108 92
212 286 216 288 106 116 157 162 74 10 161 218 257 267 241 308 57 52 53 67 62 69 71 68 59 52 55 79 106 128 138 133 124 121 116 116 125 127 126 123 115 106 98 93
147 149 258 159 193 206 140 194 94 130 124 182 228 257 267 226 182 121 93 91 98 88 90 92 87 78 73 78 90 96 91 88 85 112 110 129 143 137 127 120 112 107 98 88
165 146 250 226 1 122 151 244 149 125 240 186 159 274 346 133 136 150 140 137 138 133 123 127 125 117 117 116 101 113 142 181 240 158 161 150 140 137 136 138 135 134 103 121
189 355 351 336 9 14 108 56 88 96 82 191 155 260 146 141 149 171 164 131 61 60 49 52 65 100 134 126 120 151 148 134 152 146 146 152 156 155 146 134 132 134 131 113
94 127 173 198 223 167 107 0 87 130 119 173 225 191 186 179 168 162 126 104 71 65 62 74 96 78 80 100 119 138 139 145 146 147 149 147 149 151 142 137 147 142 131 118
138 153 132 327 0 78 99 27 23 173 174 177 253 190 177 176 179 154 128 108 130 154 150 94 93 99 104 120 128 130 137 145 148 148 146 142 146 149 146 147 153 157 160 246
7 162 110 13 13 29 96 37 43 63 108 101 125 80 111 110 107 134 168 178 187 177 150 144 119 106 127 144 151 165 162 153 152 146 144 146 140 148 152 171 183 209 246 269
72 136 108 228 346 330 6 341 320 186 189 162 208 180 144 146 169 183 196 203 191 157 151 159 160 158 161 175 176 166 159 151 148 145 149 155 161 178 193 230 259 271 277 285
126 106 80 153 23 233 262 331 332 106 327 260 245 150 150 149 120 173 166 177 174 178 180 177 173 177 184 180 172 162 154 155 158 164 174 183 198 216 237 262 286 299 308 306
63 115 74 126 150 282 320 280 168 217 326 117 151 120 82 116 120 216 230 173 185 172 180 181 175 171 175 183 177 166 157 163 166 170 184 204 221 249 261 283 300 305 307 307
63 70 109 134 138 192 239 162 179 159 319 196 130 137 146 168 136 247 194 156 152 204 163 169 169 174 176 178 175 168 164 188 207 215 224 231 245 253 262 284 294 300 308 308
15 4 113 134 174 285 258 192 157 93 239 122 143 158 163 182 197 281 139 113 179 176 167 167 173 178 184 172 169 185 197 220 226 224 233 254 272 287 288 292 299 300 303 301
180 135 177 94 83 272 174 52 143 215 323 126 131 164 184 179 216 87 147 145 164 165 166 170 179 190 198 203 207 218 225 248 246 250 259 276 289 292 295 299 302 303 301 297
270 182 184 168 212 253 269 214 263 172 171 176 155 176 176 166 207 177 176 174 177 175 173 182 186 195 208 209 226 241 257 259 263 274 274 278 278 283 292 296 301 300 298 296
249 156 171 71 231 241 262 226 252 212 136 125 119 150 169 174 166 198 171 177 177 182 184 186 192 212 225 234 239 248 268 271 268 270 270 266 275 284 294 299 302 300 298 297
205 134 164 276 273 320 315 231 165 125 113 101 117 146 170 160 188 179 192 186 190 184 184 190 201 217 232 235 254 271 277 276 265 257 262 269 279 288 296 301 299 299 296 292
187 182 160 220 210 157 211 188 147 133 144 153 129 117 139 171 189 177 195 199 188 183 185 190 205 222 238 250 256 263 270 266 259 260 266 271 283 294 297 301 303 311 309 309
Height
786 798 810 807 798 801 801 807 813 807 797 805 808 812 812 808 813 817 817 816 816 815 812 817 820 824 827 831 834 836 840 842 844 844 846 848 848 850 849 850 851 852 853 854
804 814 788 792 798 797 801 809 815 809 803 808 818 817 810 806 804 804 809 811 811 812 812 813 816 820 822 825 829 833 835 838 841 844 845 846 846 847 848 848 849 851 852 852
809 793 779 790 798 805 808 814 814 816 811 812 817 822 812 802 799 799 799 801 804 804 807 809 812 814 818 822 825 829 833 835 838 841 844 845 846 846 847 848 849 850 851 851
795 777 781 793 802 800 822 796 805 817 825 843 825 850 817 805 799 796 795 798 796 798 798 803 806 810 812 815 820 825 828 832 835 838 840 841 841 842 844 846 847 849 849 849
791 781 784 796 791 791 806 788 803 816 836 840 839 848 815 805 806 792 787 787 789 789 793 796 800 802 806 812 815 820 825 830 833 835 838 839 839 840 841 843 845 846 847 847
786 767 772 775 774 782 793 807 821 833 840 857 833 837 815 812 794 782 780 780 781 783 787 790 796 801 804 809 813 816 821 825 829 832 834 836 837 837 839 840 843 846 848 848
792 785 769 765 793 791 800 818 851 857 863 860 838 840 806 792 784 781 773 772 770 773 780 785 791 796 802 805 809 813 818 821 825 828 830 833 835 835 838 841 844 847 848 849
816 818 781 765 779 799 805 809 834 861 870 851 838 842 805 792 787 779 767 763 766 771 775 781 785 791 796 798 803 809 814 818 821 824 826 831 834 835 838 841 841 845 849 851
820 809 772 764 762 773 804 815 798 839 845 851 836 814 793 791 789 784 783 779 782 784 786 790 792 796 800 801 805 810 817 821 821 825 826 830 834 837 840 843 846 848 849 851
794 814 778 768 763 770 782 784 820 835 852 850 835 822 810 798 795 793 796 797 796 793 793 796 799 802 805 809 812 812 817 825 825 826 828 829 834 837 839 843 845 849 850 850
790 799 783 772 781 788 793 800 810 812 826 834 838 826 790 795 791 798 800 801 800 800 799 800 802 805 810 816 818 819 826 836 828 828 832 826 834 838 839 842 845 846 848 849
783 808 813 792 770 768 772 779 794 818 818 833 829 826 789 791 795 799 802 803 801 799 800 801 801 803 810 812 822 827 815 816 825 814 831 832 836 842 842 844 846 847 847 848
780 807 822 799 787 773 778 783 797 807 812 825 825 819 795 796 799 800 803 805 806 806 806 807 807 811 809 808 802 826 830 828 827 829 828 838 841 844 843 844 846 847 849 848
777 811 809 819 799 788 787 789 786 798 815 819 815 803 797 796 797 801 805 808 812 813 814 815 816 816 816 819 825 829 833 836 836 837 841 839 843 847 845 844 848 848 848 849
782 799 796 797 787 789 792 793 790 788 795 796 792 801 795 793 794 800 804 810 813 816 818 820 821 820 820 825 829 830 833 834 836 839 839 839 842 844 844 846 848 847 847 848
788 802 796 798 790 792 795 793 789 790 796 796 798 798 786 790 794 803 808 812 816 815 817 819 819 819 822 826 829 833 834 835 836 837 840 843 843 845 845 848 847 845 846 846
791 800 809 812 802 795 801 794 793 788 788 791 796 790 790 796 798 801 807 812 813 812 815 817 820 820 823 827 831 833 834 835 835 837 839 841 843 846 846 847 846 845 844 843
792 805 818 820 810 819 798 789 786 789 787 790 791 787 788 795 799 799 802 808 813 815 815 817 819 822 825 828 831 833 833 834 836 838 840 840 841 841 842 843 841 841 840 840
790 804 822 822 835 817 793 786 790 791 790 783 790 793 798 801 796 802 802 797 802 805 813 816 818 822 826 829 830 832 833 836 836 836 837 838 838 839 841 840 839 839 838 837
794 801 806 829 822 827 801 783 779 780 807 779 787 794 795 796 804 799 789 792 800 811 806 813 817 820 825 828 829 831 832 834 835 836 837 837 837 838 838 837 836 835 833 831
810 814 816 823 817 808 789 780 776 810 810 780 783 789 793 797 793 790 788 790 800 806 808 811 814 818 823 826 827 829 831 832 833 833 834 834 835 834 834 833 832 832 830 827
805 812 817 824 815 807 780 782 795 791 782 780 784 787 791 789 787 790 792 796 801 803 806 808 813 817 821 824 827 829 829 829 830 831 831 831 831 831 830 829 829 827 825 822
807 802 807 805 806 791 783 780 777 779 781 781 782 784 787 790 792 791 794 796 799 802 805 808 812 817 821 824 825 826 825 826 827 828 828 828 828 828 827 825 824 823 821 818
793 797 799 796 791 784 779 777 776 776 774 776 777 782 785 788 791 793 795 797 799 801 803 807 812 817 819 820 822 822 822 823 824 825 825 825 825 825 823 822 820 818 815 813
793 793 796 796 786 780 776 775 774 775 775 776 779 782 785 789 792 794 796 797 799 801 804 808 812 815 817 819 818 818 819 819 820 821 822 822 821 820 818 815 814 812 809 806
788 786 793 793 775 778 778 774 774 775 777 778 779 782 784 786 789 790 793 794 797 800 804 808 811 814 815 816 816 817 818 818 818 818 818 818 817 815 812 810 807 805 802 799